Content
SEND FEEDBACK

Daily
Averages
Monthly
Summary
United States of America

MILAN, MICHIGAN


Home > North America > United States > Michigan
Elevation: 660 feet     Latitude: 42 05N     Longitude: 083 35W

WEATHER
 
SELECT A DAY
Number of Records: 202,585;   Date Range: 1/1/95 - 7/26/14
 
SHARE

PRINT THIS DATA

[ ← Previous Day ]
WEATHER ALMANAC - FEBRUARY 13, 2013
[ Next Day → ]
[ °C ]   °F
Weather ElementAverageHighLow
Temperature32.1 °F39 °F (2:53 pm)28.9 °F (2:53 am)
Dewpoint21.9 °F25 °F (4:53 pm)19 °F (1:53 am)
Humidity66.7 %82 % (11:53 pm)54 % (1:53 pm)
Barometer29.82 in29.92 in (1:53 am)29.75 in (3:53 pm)
Wind Speed5.4 mph9.2 mph (1:53 am)
Weather ElementAverage
Visibility9 mi
Wind DirectionSSE (168.8 °)

Weather ElementTotal
Precipitation---
Heating Degree Days31.1 (Base 65)
Averaged from 24 records on February 13, 2013
WEATHER CONDITIONS BREAKOUT
WIND DIRECTION BREAKOUT
WEATHER BY HOUR - FEBRUARY 13, 2013
[ °C ]   °F
Local TimeTemperatureDewpointHumidityBarometerVisibilityWind DirectionWind SpeedGust SpeedPrecipitationEventsConditions
1:53 AM30.0 °F19.0 °F64 %29.92 in10.0 miWest (280°)9.2 mphOvercast
2:53 AM28.9 °F19.9 °F69 %29.91 in10.0 miWNW (300°)5.8 mphOvercast
3:53 AM28.9 °F19.0 °F67 %29.90 in10.0 miWest (260°)4.6 mphOvercast
4:53 AM28.9 °F19.9 °F69 %29.89 in10.0 miNW (310°)4.6 mphOvercast
5:53 AM28.9 °F19.0 °F67 %29.89 in10.0 miCalmOvercast
6:53 AM28.9 °F19.9 °F69 %29.88 in10.0 miNorth (350°)4.6 mphOvercast
7:53 AM28.9 °F19.9 °F69 %29.86 in10.0 miCalmOvercast
8:53 AM28.9 °F19.9 °F69 %29.85 in10.0 miCalmOvercast
9:53 AM28.9 °F19.9 °F69 %29.83 in10.0 miCalmOvercast
10:53 AM32.0 °F21.0 °F64 %29.84 in10.0 miSouth (180°)4.6 mphOvercast
11:42 AM33.8 °F21.2 °F60 %29.82 in10.0 miSouth (190°)8.1 mphScattered Clouds
11:53 AM34.0 °F21.0 °F59 %29.83 in10.0 miVariable5.8 mphPartly Cloudy
12:53 PM36.0 °F21.9 °F57 %29.81 in10.0 miWest (260°)5.8 mphClear
1:53 PM37.0 °F21.9 °F54 %29.77 in10.0 miVariable4.6 mphClear
2:53 PM39.0 °F24.1 °F55 %29.76 in10.0 miSouth (180°)9.2 mphClear
3:53 PM39.0 °F24.1 °F55 %29.75 in10.0 miSW (220°)9.2 mphClear
4:53 PM37.9 °F25.0 °F60 %29.75 in10.0 miSSW (200°)8.1 mphClear
5:53 PM35.1 °F24.1 °F64 %29.76 in8.0 miSSW (200°)6.9 mphClear
6:53 PM30.9 °F23.0 °F72 %29.78 in8.0 miSouth (190°)5.8 mphMostly Cloudy
7:53 PM32.0 °F25.0 °F75 %29.79 in7.0 miSouth (190°)5.8 mphOvercast
8:53 PM30.9 °F24.1 °F76 %29.79 in7.0 miSouth (180°)6.9 mphOvercast
9:53 PM30.9 °F24.1 °F76 %29.80 in6.0 miSouth (190°)6.9 mphHaze
10:53 PM30.9 °F25.0 °F79 %29.80 in6.0 miSouth (190°)5.8 mphHaze
11:53 PM28.9 °F24.1 °F82 %29.80 in5.0 miSouth (180°)6.9 mphHaze
Hourly data recorded from KYIP, located miles away from Milan, Michigan







STORIES FROM OUR PARTNERS